| time (UTC) | temp F | wind direction | speed MPH | gust MPH | rain 1hr in | rain 24hr in | rain mn in | humidity % | barometer mb |
| 20260507011558 | 55 | 220 | 2.0 | 6.0 | 0.00 | 0.00 | 0.00 | 21 | 1008.8 |
| 20260507010101 | 56 | 0 | 0.0 | 7.0 | 0.00 | 0.00 | 0.00 | 19 | 1008.8 |
| 20260507004605 | 57 | 205 | 3.0 | 8.0 | 0.00 | 0.00 | 0.00 | 20 | 1008.8 |
| 20260507003116 | 57 | 0 | 2.0 | 9.0 | 0.00 | 0.00 | 0.00 | 20 | 1008.9 |
| 20260507001615 | 57 | 268 | 5.0 | 10.0 | 0.00 | 0.00 | 0.00 | 19 | 1009.0 |
| 20260506234603 | 57 | 160 | 4.0 | 10.0 | 0.00 | 0.00 | 0.00 | 20 | 1009.3 |
| 20260506233103 | 58 | 321 | 3.0 | 10.0 | 0.00 | 0.00 | 0.00 | 19 | 1009.4 |
| 20260506231608 | 58 | 159 | 6.0 | 14.0 | 0.00 | 0.00 | 0.00 | 21 | 1009.4 |
| 20260506230115 | 58 | 0 | 4.0 | 9.0 | 0.00 | 0.00 | 0.00 | 19 | 1009.4 |
| 20260506224559 | 58 | 201 | 2.0 | 9.0 | 0.00 | 0.00 | 0.00 | 21 | 1009.5 |
| 20260506223103 | 57 | 158 | 3.0 | 9.0 | 0.00 | 0.00 | 0.00 | 20 | 1009.8 |
| 20260506221614 | 57 | 106 | 7.0 | 14.0 | 0.00 | 0.00 | 0.00 | 21 | 1010.0 |
| 20260506220100 | 56 | 204 | 3.0 | 8.0 | 0.00 | 0.00 | 0.00 | 21 | 1010.3 |
| 20260506214600 | 56 | 160 | 2.0 | 6.0 | 0.00 | 0.00 | 0.00 | 23 | 1010.4 |
| 20260506213106 | 56 | 337 | 3.0 | 7.0 | 0.00 | 0.00 | 0.00 | 21 | 1010.7 |
| 20260506211600 | 55 | 176 | 3.0 | 11.0 | 0.00 | 0.00 | 0.00 | 22 | 1010.7 |
| 20260506204601 | 55 | 10 | 2.0 | 7.0 | 0.00 | 0.00 | 0.00 | 22 | 1011.1 |
| 20260506203120 | 55 | 197 | 5.0 | 11.0 | 0.00 | 0.00 | 0.00 | 22 | 1011.3 |
| 20260506201558 | 56 | 194 | 5.0 | 9.0 | 0.00 | 0.00 | 0.00 | 24 | 1011.4 |
| 20260506194610 | 55 | 0 | 2.0 | 9.0 | 0.00 | 0.00 | 0.00 | 24 | 1011.6 |
| 20260506193107 | 54 | 104 | 5.0 | 13.0 | 0.00 | 0.00 | 0.00 | 28 | 1011.7 |
| 20260506191601 | 53 | 207 | 2.0 | 11.0 | 0.00 | 0.00 | 0.00 | 25 | 1012.0 |
| 20260506190100 | 54 | 233 | 3.0 | 9.0 | 0.00 | 0.00 | 0.00 | 26 | 1012.1 |
| 20260506184600 | 54 | 45 | 6.0 | 11.0 | 0.00 | 0.00 | 0.00 | 29 | 1012.3 |
| 20260506183109 | 53 | 87 | 4.0 | 10.0 | 0.00 | 0.00 | 0.00 | 27 | 1012.4 |
| 20260506181604 | 53 | 104 | 8.0 | 13.0 | 0.00 | 0.00 | 0.00 | 27 | 1012.4 |
| 20260506180058 | 52 | 21 | 1.0 | 7.0 | 0.00 | 0.00 | 0.00 | 26 | 1012.5 |
| 20260506174601 | 52 | 103 | 5.0 | 11.0 | 0.00 | 0.00 | 0.00 | 30 | 1012.7 |
| 20260506173109 | 50 | 18 | 3.0 | 9.0 | 0.00 | 0.00 | 0.00 | 29 | 1013.0 |
| 20260506171603 | 49 | 55 | 2.0 | 10.0 | 0.00 | 0.00 | 0.00 | 29 | 1013.3 |
| 20260506170111 | 50 | 359 | 2.0 | 7.0 | 0.00 | 0.00 | 0.00 | 30 | 1013.5 |
| 20260506164625 | 49 | 211 | 2.0 | 9.0 | 0.00 | 0.00 | 0.00 | 31 | 1013.6 |
| 20260506163112 | 48 | 193 | 1.0 | 10.0 | 0.00 | 0.00 | 0.00 | 32 | 1013.7 |
| 20260506161559 | 47 | 167 | 3.0 | 9.0 | 0.00 | 0.00 | 0.00 | 32 | 1013.7 |
| 20260506160122 | 46 | 249 | 4.0 | 11.0 | 0.00 | 0.00 | 0.00 | 33 | 1013.9 |
| 20260506154600 | 45 | 266 | 6.0 | 11.0 | 0.00 | 0.00 | 0.00 | 36 | 1014.1 |
| 20260506153059 | 43 | 257 | 8.0 | 12.0 | 0.00 | 0.00 | 0.00 | 37 | 1014.3 |
| 20260506151604 | 41 | 251 | 9.0 | 13.0 | 0.00 | 0.00 | 0.00 | 41 | 1014.5 |
| 20260506150108 | 40 | 228 | 7.0 | 12.0 | 0.00 | 0.00 | 0.00 | 42 | 1014.7 |
| 20260506144607 | 39 | 230 | 9.0 | 13.0 | 0.00 | 0.00 | 0.00 | 43 | 1015.0 |
| 20260506143100 | 37 | 235 | 8.0 | 13.0 | 0.00 | 0.00 | 0.00 | 45 | 1015.2 |
| 20260506141558 | 36 | 235 | 9.0 | 13.0 | 0.00 | 0.00 | 0.00 | 47 | 1015.1 |
| 20260506140059 | 35 | 219 | 9.0 | 14.0 | 0.00 | 0.00 | 0.00 | 51 | 1015.1 |
| 20260506134559 | 33 | 220 | 9.0 | 15.0 | 0.00 | 0.00 | 0.00 | 54 | 1015.1 |
| 20260506133109 | 32 | 215 | 9.0 | 13.0 | 0.00 | 0.00 | 0.00 | 58 | 1015.1 |
| 20260506131615 | 30 | 189 | 9.0 | 13.0 | 0.00 | 0.00 | 0.00 | 62 | 1015.2 |
| 20260506130100 | 28 | 205 | 8.0 | 12.0 | 0.00 | 0.00 | 0.00 | 64 | 1015.2 |
| 20260506124559 | 26 | 204 | 8.0 | 12.0 | 0.00 | 0.00 | 0.00 | 66 | 1015.4 |
| 20260506123106 | 25 | 214 | 8.0 | 10.0 | 0.00 | 0.00 | 0.00 | 67 | 1015.4 |
| 20260506121602 | 23 | 208 | 8.0 | 12.0 | 0.00 | 0.00 | 0.00 | 68 | 1015.3 |
| 20260506120116 | 23 | 202 | 8.0 | 10.0 | 0.00 | 0.00 | 0.00 | 68 | 1015.4 |
| 20260506114559 | 22 | 206 | 7.0 | 10.0 | 0.00 | 0.00 | 0.00 | 69 | 1015.5 |
| 20260506113100 | 21 | 206 | 8.0 | 12.0 | 0.00 | 0.00 | 0.00 | 71 | 1015.6 |
| 20260506111558 | 20 | 196 | 8.0 | 10.0 | 0.00 | 0.00 | 0.00 | 72 | 1015.6 |
| 20260506110114 | 20 | 187 | 6.0 | 8.0 | 0.00 | 0.00 | 0.00 | 71 | 1015.6 |
| 20260506104614 | 20 | 179 | 6.0 | 9.0 | 0.00 | 0.00 | 0.00 | 70 | 1015.8 |
| 20260506103059 | 21 | 179 | 5.0 | 8.0 | 0.00 | 0.00 | 0.00 | 69 | 1015.9 |
| 20260506101559 | 21 | 183 | 6.0 | 9.0 | 0.00 | 0.00 | 0.00 | 68 | 1016.0 |
| 20260506100112 | 21 | 188 | 7.0 | 9.0 | 0.00 | 0.00 | 0.00 | 68 | 1016.1 |
| 20260506094603 | 21 | 195 | 8.0 | 10.0 | 0.00 | 0.00 | 0.00 | 68 | 1016.1 |
| 20260506093102 | 21 | 188 | 7.0 | 8.0 | 0.00 | 0.00 | 0.00 | 69 | 1016.3 |
| 20260506091607 | 21 | 197 | 6.0 | 8.0 | 0.00 | 0.00 | 0.00 | 69 | 1016.5 |
| 20260506090105 | 20 | 181 | 6.0 | 7.0 | 0.00 | 0.00 | 0.00 | 70 | 1016.4 |
| 20260506084634 | 20 | 184 | 7.0 | 9.0 | 0.00 | 0.00 | 0.00 | 69 | 1016.5 |
| 20260506083101 | 19 | 179 | 7.0 | 9.0 | 0.00 | 0.00 | 0.00 | 69 | 1016.6 |
| 20260506081601 | 20 | 166 | 6.0 | 8.0 | 0.00 | 0.00 | 0.00 | 68 | 1016.6 |
| 20260506080104 | 20 | 166 | 6.0 | 8.0 | 0.00 | 0.00 | 0.00 | 68 | 1016.7 |
| 20260506073100 | 21 | 154 | 6.0 | 7.0 | 0.00 | 0.00 | 0.00 | 67 | 1017.0 |
| 20260506071559 | 21 | 160 | 6.0 | 7.0 | 0.00 | 0.00 | 0.00 | 67 | 1017.2 |
| 20260506061600 | 21 | 160 | 6.0 | 7.0 | 0.00 | 0.00 | 0.00 | 67 | 1017.4 |
| 20260506050104 | 24 | 145 | 5.0 | 7.0 | 0.00 | 0.00 | 0.00 | 59 | 1017.8 |
| 20260506044604 | 24 | 145 | 4.0 | 6.0 | 0.00 | 0.00 | 0.00 | 56 | 1017.7 |
| 20260506043059 | 25 | 145 | 4.0 | 6.0 | 0.00 | 0.00 | 0.00 | 56 | 1017.8 |
| 20260506041609 | 25 | 113 | 6.0 | 7.0 | 0.00 | 0.00 | 0.00 | 54 | 1017.7 |
| 20260506040101 | 28 | 119 | 4.0 | 6.0 | 0.00 | 0.00 | 0.00 | 50 | 1017.8 |
| 20260506034600 | 29 | 111 | 4.0 | 6.0 | 0.00 | 0.00 | 0.00 | 48 | 1017.7 |
| 20260506033101 | 31 | 85 | 3.0 | 4.0 | 0.00 | 0.00 | 0.00 | 44 | 1017.7 |
| 20260506031601 | 33 | 85 | 3.0 | 4.0 | 0.00 | 0.00 | 0.00 | 42 | 1017.6 |
| 20260506024602 | 38 | 54 | 3.0 | 5.0 | 0.00 | 0.00 | 0.00 | 37 | 1017.5 |
| 20260506023109 | 41 | 46 | 4.0 | 7.0 | 0.00 | 0.00 | 0.00 | 33 | 1017.5 |
| 20260506021617 | 43 | 29 | 6.0 | 12.0 | 0.00 | 0.00 | 0.00 | 31 | 1017.5 |
| 20260506014600 | 46 | 33 | 8.0 | 15.0 | 0.00 | 0.00 | 0.00 | 27 | 1017.4 |
| 20260506013109 | 46 | 20 | 9.0 | 15.0 | 0.00 | 0.00 | 0.00 | 27 | 1017.3 |